www.pogodaiklimat.ru

Погода и климат >> Архив погоды >> Таиланд >> Suphan Buri


ПОГОДА в Suphan Buri

  • Прогноз погоды в Suphan Buri
  • Монитор погоды в Suphan Buri
  • Климат города

АРХИВ ПОГОДЫ в Suphan Buri

Время (UTC), дата Ветер
(напр.,м/с)
 
Видим.   Явления Облачность Т
(С)
Тd
(С)
f
(%)
Тe
(С)
Тes
(С)
Комфортность P
(гПа)
Po
(гПа)
Тmin
(С)
Tmax
(С)
R
(мм)
R24
(мм)
S
(см)
06 17.06 З 1 14 км 8/3 600 м
[Cu hum Ac lent Cs]
+35.4 +24.7 54 +48 +59 опасность
перегрева
1006.6 1005.6
09 17.06 штиль 0 14 км 6/1 600 м
[Cu med, cong Cs]
+36.1 +25.5 55 +51 +60 опасность
перегрева
1004.3 1003.4
12 17.06 штиль 0 12 км 8/3 600 м
[Cb cap Ac und Cs]
+33.7 +26.2 65 +50 +50 опасность
перегрева
1004.6 1003.6 +36.6
15 17.06 штиль 0 10 км 10/4 600 м
[Sc Ac und Cs]
+29.1 +24.8 78 +42 +42 опасность
перегрева
1007.8 1006.8
18 17.06 штиль 0 4000 м слабый дождь 10/5 600 м
[Sc Ac und Cs]
+28.0 +26.6 92 +43 +43 опасность
перегрева
1007.1 1006.1 0.6
21 17.06 штиль 0 5000 м дымка {дождь} 10/5 600 м
[Sc Ac und Cs]
+28.0 +26.7 93 +44 +44 опасность
перегрева
1005.5 1004.5 0.1
00 18.06 штиль 0 8000 м дымка {дождь} 8/3 600 м
[Sc Ac trans Cs]
+28.0 +25.4 86 +41 +42 опасность
перегрева
1005.6 1004.6 +27.3
03 18.06 штиль 0 10 км 8/3 600 м
[Sc Ac trans Cs]
+31.6 +24.6 66 +44 +53 опасность
перегрева
1007.0 1006.0
06 18.06 штиль 0 10 км 10/4 600 м
[Sc Ac und Cs]
+33.0 +26.5 69 +50 +58 опасность
перегрева
1006.3 1005.3
09 18.06 ЮЗ 1 12 км 6/3 600 м
[Cb cap Cs]
+35.1 +25.9 59 +51 +57 опасность
перегрева
1003.4 1002.4
12 18.06 штиль 0 8000 м гроза, ливневой дождь 9/3 600 м
[Cb cap Ac und Cs]
+26.9 +25.8 94 +40 +40 очень
душно
1005.7 1004.7 +35.6 1
15 18.06 штиль 0 6000 м слабый дождь {гроза} 10/5 600 м
[Sc Ac und Cs]
+26.6 +25.2 92 +38 +38 очень
душно
1008.4 1007.4 0.7
18 18.06 штиль 0 6000 м дымка {гроза, дождь} 10/4 600 м
[Sc Ac und Cs]
+26.5 +26.5 100 +40 -216 очень
душно
1007.2 1006.3 0.2
21 18.06 штиль 0 6000 м дымка 8/3 600 м
[Sc Ac trans Cs]
+26.7 +25.4 93 +39 +39 очень
душно
1006.2 1005.2
00 19.06 штиль 0 8000 м дымка 9/6 600 м
[Sc Ac lent Cs]
+27.0 +24.1 84 +37 +38 очень
душно
1007.4 1006.4 +26.0 2
03 19.06 З 2 10 км 6/3 600 м
[Cu med, cong Ac lent Cs]
+32.0 +24.9 66 +45 +54 опасность
перегрева
1008.1 1007.1
06 19.06 З 4 12 км 8/6 600 м
[Cu med, cong Ac lent Cs]
+35.0 +24.1 53 +47 +51 опасность
перегрева
1006.0 1005.0
09 19.06 З 3 12 км 8/4 600 м
[Cu med, cong Ac lent Cs]
+35.4 +25.0 55 +49 +52 опасность
перегрева
1004.0 1003.0
12 19.06 З 2 10 км 10/5 600 м
[Cb cap Ac As Cs]
+31.8 +24.7 66 +45 +45 опасность
перегрева
1005.0 1004.0 +36.1
15 19.06 штиль 0 10 км {гроза} 10/4 600 м
[Cu Sc Ac As Cs]
+28.3 +25.5 85 +42 +42 опасность
перегрева
1007.9 1006.9
18 19.06 штиль 0 10 км слабый дождь {гроза} 10/6 600 м
[Sc Ac As Cs]
+27.5 +25.9 91 +41 +41 опасность
перегрева
1008.5 1007.5 0.1
21 19.06 штиль 0 10 км {дождь} 10/5 600 м
[Sc Ac As Cs]
+27.2 +25.9 93 +41 +41 опасность
перегрева
1007.2 1006.2 0.0
00 20.06 штиль 0 12 км {дождь} 10/4 600 м
[Sc Ac und Cs]
+27.2 +26.3 95 +41 +42 опасность
перегрева
1007.4 1006.4 +26.7 0.1
03 20.06 ЮЗ 1 12 км 8/1 600 м
[Cu hum Ac trans Cs]
+31.1 +24.5 68 +44 +53 опасность
перегрева
1008.8 1007.8
06 20.06 З 3 12 км 9/3 600 м
[Cu hum Ac trans Cs]
+34.0 +24.3 57 +46 +53 опасность
перегрева
1007.5 1006.5
09 20.06 З 2 12 км 9/3 600 м
[Cb cap Ac und Cs]
+34.8 +24.0 54 +47 +50 опасность
перегрева
1004.6 1003.6
12 20.06 штиль 0 10 км 10/3 600 м
[Cb cap Ac und Cs]
+29.7 +25.3 77 +43 +43 опасность
перегрева
1005.9 1004.9 +35.7
15 20.06 штиль 0 10 км 10/4 600 м
[Sc Ac und Cs]
+28.8 +25.5 82 +42 +42 опасность
перегрева
1008.1 1007.1
18 20.06 штиль 0 10 км 10/4 600 м
[Sc Ac und Cs]
+28.3 +25.5 85 +42 +42 опасность
перегрева
1007.7 1006.7
21 20.06 штиль 0 10 км 10/4 600 м
[Sc Ac und Cs]
+28.0 +24.8 83 +40 +40 очень
душно
1006.6 1005.6
00 21.06 штиль 0 10 км 8/3 600 м
[Sc Ac trans Cs]
+28.4 +25.0 82 +41 +42 опасность
перегрева
1007.8 1006.8 +27.3
03 21.06 штиль 0 10 км 8/3 600 м
[Sc Ac trans Cs]
+31.5 +25.4 70 +46 +55 опасность
перегрева
1008.8 1007.8
06 21.06 З 3 12 км 9/5 600 м
[Cu med, cong Ac As Cs]
+34.0 +25.8 62 +49 +54 опасность
перегрева
1006.8 1005.8
09 21.06 штиль 0 12 км 8/4 600 м
[Cb cap Ac As Cs]
+35.6 +26.2 58 +51 +56 опасность
перегрева
1003.9 1002.9
12 21.06 ЮЗ 4 12 км 8/3 600 м
[Cb cap Ac trans Cs]
+30.9 +25.2 72 +45 +45 опасность
перегрева
1004.8 1003.8 +36.0
15 21.06 штиль 0 10 км 8/4 600 м
[Sc Ac trans Cs]
+28.3 +24.1 78 +39 +39 очень
душно
1008.2 1007.2
18 21.06 штиль 0 10 км 10/4 600 м
[Sc As op Cs]
+27.9 +25.5 87 +41 +41 опасность
перегрева
1008.2 1007.2
21 21.06 Ю 2 10 км дымка 6/3 600 м
[Sc Ac trans Cs]
+27.2 +26.3 95 +41 +41 опасность
перегрева
1006.3 1005.3
00 22.06 штиль 0 10 км 8/3 600 м
[Sc Ac trans Cs]
+27.7 +26.3 92 +42 +43 опасность
перегрева
1007.5 1006.5 +26.7
03 22.06 ЮВ 1 10 км 8/3 600 м
[Sc Ac trans Cs]
+31.5 +25.7 71 +46 +54 опасность
перегрева
1008.9 1007.9
06 22.06 СЗ 3 12 км 8/3 600 м
[Cu med, cong Ac trans Cs]
+35.0 +24.5 55 +48 +56 опасность
перегрева
1006.8 1005.8
09 22.06 штиль 0 10 км слабый ливневой дождь, в посл. час гроза 10/4 600 м
[Cb cap Ac und Cs]
+29.3 +27.2 88 +46 +50 опасность
перегрева
1004.9 1003.9 0.9
12 22.06 ЮЗ 2 10 км {гроза, дождь} 8/3 600 м
[Cu med, cong Ac As Cs]
+30.5 +23.6 67 +42 +42 опасность
перегрева
1006.1 1005.1 +36.2 0.0
15 22.06 штиль 0 10 км 5/0
[Ac trans Cs]
+28.5 +24.6 79 +40 +40 очень
душно
1008.1 1007.1
18 22.06 штиль 0 10 км 8/3 600 м
[Sc Ac trans Cs]
+27.5 +24.0 81 +38 +38 очень
душно
1007.5 1006.5
21 22.06 Ю 2 10 км 8/3 600 м
[Sc Ac trans Cs]
+27.0 +23.6 82 +37 +37 очень
душно
1006.4 1005.4
00 23.06 ЮЗ 4 10 км 8/5 600 м
[Sc Ac lent Cs]
+27.2 +23.6 81 +37 +37 очень
душно
1007.4 1006.4 +26.0 0.9
03 23.06 З 2 12 км 8/3 600 м
[Cu med, cong Ac trans Cs]
+31.0 +24.1 67 +43 +50 опасность
перегрева
1008.4 1007.4
06 23.06 З 2 12 км 8/4 600 м
[Cu med, cong Ac As Cs]
+33.3 +23.4 56 +44 +52 опасность
перегрева
1006.4 1005.4
12 23.06 ЮЗ 3 12 км 8/4 600 м
[Cu med, cong Ac lent Cs]
+31.8 +24.4 65 +44 +44 опасность
перегрева
1003.8 1002.8 +35.4
15 23.06 штиль 0 10 км 8/3 600 м
[Cu med, cong Ac lent Cs]
+29.4 +23.4 70 +40 +40 очень
душно
1006.6 1005.6
18 23.06 Ю 1 10 км 8/3 600 м
[Sc Ac trans Cs]
+27.9 +23.1 75 +37 +37 очень
душно
1006.1 1005.1
21 23.06 ЮЗ 3 10 км 8/3 600 м
[Sc Ac trans Cs]
+27.2 +23.2 79 +37 +37 очень
душно
1005.0 1004.0
00 24.06 штиль 0 10 км 8/3 600 м
[Sc Ac trans Cs]
+27.5 +23.9 81 +38 +39 очень
душно
1005.8 1004.8 +26.2
03 24.06 Ю 2 10 км 8/3 600 м
[Sc Ac trans Cs]
+31.8 +23.9 63 +43 +50 опасность
перегрева
1006.4 1005.4

 

Местоположение метеостанции Suphan Buri (Таиланд): широта 14.47 долгота 100.13 высота над уровнем моря 8 м.

В архиве по умолчанию представлена погода в Suphan Buri за последнюю неделю. Архивные данные за месяц целиком и за предыдущие месяцы, начиная с января 2011 года, Вы можете получить, выбрав интересующий диапазон дат из раскрывающегося списка и нажав кнопку "Ввод!".

Внимание! Время в таблицах - всемирное. Для получения местного времени необходимо прибавить поправку, которая в Suphan Buri равна 7 ч.

Смотрите также архив погоды в соседних городах и на ближайших метеорологических станциях:

Погода в U Thong Agromet (Таиланд) (34 км)
Погода в Nakhonpathom (Таиланд) (53 км)
Погода в Lop Buri (Таиланд) (63 км)
Погода в Ayutthaya (Таиланд) (64 км)
Погода в Pathumthani (Таиланд) (67 км)
Погода в Chainat Agromet (Таиланд) (76 км)
Погода в Don Muang (Таиланд) (79 км)
Погода в Kanchanaburi (Таиланд) (82 км)
Погода в Saraburi (Таиланд) (85 км)
Погода в Bangkok (Таиланд) (94 км)

Пояснения к столбцам:

Ветер - указаны скорость ветра в м/с - средняя за 10 мин, порывы в срок и между сроками (в фигурных скобках) и направление, откуда дует ветер: С - северный, СВ - северо-восточный, В - восточный, ЮВ - юго-восточный, Ю - южный, ЮЗ - юго-западный, З - западный, СЗ - северо-западный.
Видимость - горизонтальная дальность видимости в метрах или километрах. При видимости от 1 до 10 км при отсутствии осадков обычно наблюдается дымка, при ухудшении видимости до 1 км и менее - туман. В сухую погоду видимость может ухудшаться дымом, пылью или мглою.
Явления - указаны атмосферные явления, наблюдавшиеся в срок или в последний час перед сроком; фигурными скобками обозначены явления, наблюдавшиеся между сроками (за 1-3 часа до срока); квадратными скобками обозначены град или гололедные отложения с указанием их диаметра в мм.
Облачность - указаны через наклонную черту общая и нижняя облачность в баллах и высота нижней границы облаков в метрах; квадратными скобками обозначены формы облаков: Ci - перистые, Cs - перисто-слоистые, Cc - перисто-кучевые, Ac - высококучевые, As - высокослоистые, Sc - слоисто-кучевые, Ns - слоисто-дождевые, Cu - кучевые, Cb - кучево-дождевые. Подробнее классификацию облаков см. в Атласе облаков (PDF).
T - Температура воздуха - температура, измеренная на высоте 2 м над землей.
Td - Температура точки росы - температура, при понижении до которой содержащийся в воздухе водяной пар достигнет насыщения.
f - Относительная влажность воздуха - влажноcть воздуха, измеренная на высоте 2 м над землей.
Te - Эффективная температура - температура, которую ощущает одетый по сезону человек в тени. Характеристика душности погоды. При расчете учитывается влияние влажности воздуха и скорости ветра на теплоощущения человека.
Tes - Эффективная температура на солнце - температура, которую ощущает человек, с поправкой на солнечный нагрев. Характеристика знойности погоды. Зависит от высоты солнца над горизонтом, облачности и скорости ветра. Ночью, в пасмурную погоду, а также при ветре 12 м/с и более поправка равна нулю.
P - Атмосферное давление - приведенное к уровню моря атмосферное давление.
Po - Атмосферное давление - измеренное на уровне метеостанции атмосферное давление.
Tmin - Минимальная температура - минимум температуры воздуха на высоте 2 м над землей.
Tmax - Максимальная температура - максимум температуры воздуха на высоте 2 м над землей.
R - Количество осадков - Количество выпавших осадков за период времени, мм. При наведении курсора мыши на число - период времени, за который выпало указанное количество осадков.
R24 - Количество осадков - Количество выпавших осадков за 24 часа, мм.
S - Снежный покров - Высота снежного покрова, см. При наведении курсора мыши на число - состояние снежного покрова и степень покрытия местности в баллах.